Weather History for KMWH - February, 2013

Change the Weather History Date:

Tuesday, February 5, 2013

  Actual Average Record
Temperature  
Mean Temperature 36 °F 33 °F  
Max Temperature 44 °F 40 °F - ()
Min Temperature 27 °F 26 °F - ()
Degree Days  
Heating Degree Days 29 32  
Month to date heating degree days 152 161  
Since 1 July heating degree days 3506 3835  
Cooling Degree Days 0 0  
Month to date cooling degree days 0 0  
Year to date cooling degree days 0 0  
Moisture  
Dew Point 29 °F    
Average Humidity 81    
Maximum Humidity 92    
Minimum Humidity 70    
Precipitation  
Precipitation 0.00 in 0.04 in - ()
Month to date precipitation 0.00 0.19  
Year to date precipitation 0.28 1.33  
Sea Level Pressure  
Sea Level Pressure 29.89 in    
Wind  
Wind Speed 4 mph (North)    
Max Wind Speed 10 mph    
Max Gust Speed 13 mph    
Visibility 3 miles    
Events Fog    
T = Trace of Precipitation, MM = Missing Value Source: NWS Daily Summary

Daily Weather History Graph

Daily Weather History Graph

Search for Another Location

Airport or City:

Trip Planner

Search our weather history database for the weather conditions in past years. The results will help you decide how hot, cold, wet, or windy it might be!

Date:

Astronomy

Feb. 05, 2013 Rise Set
Actual Time 7:16 AM PST 5:06 PM PST
Civil Twilight 6:44 AM PST 5:38 PM PST
Nautical Twilight 6:08 AM PST 6:15 PM PST
Astronomical Twilight 5:32 AM PST 6:50 PM PST
Moon 3:11 AM PST (2/5) 12:20 PM PST (2/5)
Length of Visible Light 10h 54m
Length of Day
9h 49m
Waning Crescent, 25% of the Moon is Illuminated
Feb 5
Waning Crescent
Feb 9
New
Feb 17
First Quarter
Feb 25
Full
Mar 4
Last Quarter

Hourly Weather History & Observations

Time (PST) Temp. Windchill Dew Point Humidity Pressure Visibility Wind Dir Wind Speed Gust Speed Precip Events Conditions
12:52 AM 33.1 °F 28.7 °F 30.0 °F 89% 29.98 in 6.0 mi WNW 4.6 mph - N/A   Overcast
1:24 AM 33.8 °F 28.6 °F 30.2 °F 87% 29.94 in 7.0 mi NW 5.8 mph - N/A   Overcast
1:52 AM 34.0 °F 28.8 °F 30.9 °F 89% 29.96 in 6.0 mi North 5.8 mph - N/A   Overcast
2:52 AM 33.1 °F - 30.9 °F 92% 29.93 in 6.0 mi Calm Calm - N/A   Overcast
3:52 AM 30.9 °F 27.5 °F 28.0 °F 89% 29.91 in 5.0 mi NNE 3.5 mph - N/A   Clear
4:40 AM 30.2 °F 24.3 °F 26.6 °F 86% 29.88 in 2.0 mi West 5.8 mph - N/A   Partly Cloudy
4:44 AM 30.2 °F 25.4 °F 26.6 °F 86% 29.88 in 1.0 mi West 4.6 mph - N/A   Mist
4:52 AM 30.0 °F 26.5 °F 27.0 °F 88% 29.92 in 1.8 mi West 3.5 mph - N/A   Partly Cloudy
4:55 AM 30.2 °F - 28.4 °F 93% 29.88 in 3.0 mi Calm Calm - N/A   Partly Cloudy
5:52 AM 30.9 °F 27.5 °F 27.0 °F 85% 29.89 in 6.0 mi NNE 3.5 mph - N/A   Overcast
6:44 AM 28.4 °F - 24.8 °F 86% 29.85 in 2.5 mi Calm Calm - N/A   Partly Cloudy
6:48 AM 28.4 °F 23.3 °F 24.8 °F 86% 29.85 in 1.0 mi SSE 4.6 mph - N/A   Mist
6:52 AM 28.0 °F 21.7 °F 25.0 °F 88% 29.90 in 0.5 mi South 5.8 mph - N/A Fog Light Freezing Fog
7:00 AM 28.4 °F 21.2 °F 24.8 °F 86% 29.85 in 0.2 mi SSE 6.9 mph - N/A Fog Light Freezing Fog
7:19 AM 28.4 °F 24.6 °F 26.6 °F 93% 29.86 in 0.2 mi SSW 3.5 mph - N/A Fog Light Freezing Fog
7:52 AM 30.0 °F - 28.0 °F 92% 29.90 in 0.2 mi Calm Calm - N/A Fog Light Freezing Fog
8:25 AM 30.2 °F - 28.4 °F 93% 29.88 in 0.2 mi Calm Calm - N/A Fog Light Freezing Fog
8:36 AM 30.2 °F 26.7 °F 28.4 °F 93% 29.88 in 1.0 mi SW 3.5 mph - N/A   Mist
8:44 AM 30.2 °F - 28.4 °F 93% 29.87 in 2.0 mi Calm Calm - N/A   Overcast
8:52 AM 30.9 °F - 28.9 °F 92% 29.91 in 2.0 mi Calm Calm - N/A   Overcast
9:23 AM 32.0 °F - 30.2 °F 93% 29.87 in 2.5 mi Calm Calm - N/A   Overcast
9:52 AM 32.0 °F 28.7 °F 30.0 °F 92% 29.90 in 2.5 mi SSE 3.5 mph - N/A   Overcast
10:11 AM 33.8 °F - 30.2 °F 87% 29.87 in 3.0 mi Calm Calm - N/A   Overcast
10:52 AM 34.0 °F - 30.9 °F 89% 29.91 in 3.0 mi Calm Calm - N/A   Overcast
10:59 AM 33.8 °F - 30.2 °F 87% 29.87 in 5.0 mi Calm Calm - N/A   Overcast
11:41 AM 35.6 °F - 32.0 °F 87% 29.86 in 5.0 mi Calm Calm - N/A   Overcast
11:52 AM 36.0 °F 33.3 °F 32.0 °F 86% 29.89 in 4.0 mi SE 3.5 mph - N/A   Overcast
12:27 PM 37.4 °F 32.8 °F 32.0 °F 81% 29.84 in 6.0 mi SSE 5.8 mph - N/A   Haze
12:52 PM 37.0 °F 32.4 °F 33.1 °F 86% 29.88 in 4.0 mi SE 5.8 mph - N/A   Overcast
1:29 PM 37.4 °F - 33.8 °F 87% 29.84 in 6.0 mi Calm Calm - N/A   Overcast
1:52 PM 39.0 °F - 33.1 °F 79% 29.86 in 6.0 mi Calm Calm - N/A   Haze
2:13 PM 41.0 °F - 33.8 °F 76% 29.84 in 6.0 mi Calm Calm - N/A   Haze
2:52 PM 42.1 °F - 34.0 °F 73% 29.87 in 8.0 mi Calm Calm - N/A   Scattered Clouds
3:52 PM 43.0 °F 41.3 °F 34.0 °F 71% 29.86 in 9.0 mi SE 3.5 mph - N/A   Clear
4:52 PM 37.9 °F 32.7 °F 32.0 °F 79% 29.88 in 6.0 mi North 6.9 mph - N/A   Haze
5:52 PM 35.1 °F 29.3 °F 30.9 °F 85% 29.87 in 6.0 mi North 6.9 mph - N/A   Clear
6:52 PM 33.1 °F 26.9 °F 30.0 °F 89% 29.88 in 5.0 mi North 6.9 mph - N/A   Clear
7:52 PM 32.0 °F - 28.0 °F 85% 29.89 in 5.0 mi Calm Calm - N/A   Clear
8:41 PM 28.4 °F 21.2 °F 26.6 °F 93% 29.86 in 2.5 mi North 6.9 mph - N/A   Partly Cloudy
8:47 PM 28.4 °F 23.3 °F 26.6 °F 93% 29.86 in 1.0 mi North 4.6 mph - N/A   Mist
8:52 PM 28.9 °F 22.8 °F 25.0 °F 85% 29.90 in 0.8 mi North 5.8 mph - N/A   Mist
9:21 PM 28.4 °F - 24.8 °F 86% 29.88 in 0.2 mi Calm Calm - N/A Fog Light Freezing Fog
9:40 PM 26.6 °F - 24.8 °F 93% 29.88 in 0.5 mi Calm Calm - N/A Fog Light Freezing Fog
9:52 PM 28.0 °F 20.8 °F 25.0 °F 88% 29.92 in 1.0 mi NNW 6.9 mph - N/A   Mist
10:02 PM 28.4 °F 23.3 °F 24.8 °F 86% 29.89 in 0.8 mi NNW 4.6 mph - N/A   Mist
10:20 PM 28.4 °F 23.3 °F 26.6 °F 93% 29.90 in 0.2 mi NNW 4.6 mph - N/A Fog Light Freezing Fog
10:35 PM 28.4 °F 22.2 °F 24.8 °F 86% 29.90 in 0.5 mi North 5.8 mph - N/A Fog Light Freezing Fog
10:52 PM 28.0 °F - 26.1 °F 92% 29.94 in 1.0 mi Calm Calm - N/A   Overcast
11:09 PM 26.6 °F 22.6 °F 24.8 °F 93% 29.90 in 2.5 mi SSE 3.5 mph - N/A   Scattered Clouds
11:19 PM 28.4 °F 21.2 °F 24.8 °F 86% 29.90 in 4.0 mi SSE 6.9 mph - N/A   Partly Cloudy
11:52 PM 28.9 °F 21.9 °F 26.1 °F 89% 29.94 in 7.0 mi SSE 6.9 mph - N/A   Clear